[Iaude] MPEC J208: 2024 JU5 [a=1.35,e=0.06,i=16.2,H=22.8]

mpec at cfa.harvard.edu mpec at cfa.harvard.edu
Wed May 8 20:28:22 EDT 2024


M.P.E.C. 2024-J208                                  Issued 2024 May 9, 00:26 UT

     The Minor Planet Electronic Circulars contain information on unusual
         minor planets, routine data on comets and natural satellites,
         and occasional editorial announcements.  They are published
    on behalf of Division F of the International Astronomical Union by the
          Minor Planet Center, Smithsonian Astrophysical Observatory,
                          Cambridge, MA 02138, U.S.A.
			  
             Prepared using the Tamkin Foundation Computer Network

                              MPC at CFA.HARVARD.EDU
            URL https://www.minorplanetcenter.net/    ISSN 1523-6714

                                    2024 JU5                                    


Observations:
     K24J05U  C2024 05 02.41945615 18 37.001-01 18 06.22         22.02GVEJ208F52
     K24J05U  C2024 05 02.42998215 18 35.504-01 18 17.21         22.34GVEJ208F52
     K24J05U  C2024 05 02.44053215 18 33.961-01 18 28.20         22.14GVEJ208F52
     K24J05U  C2024 05 02.45109515 18 32.432-01 18 39.59         22.27GVEJ208F52
     K24J05U  C2024 05 04.45555715 13 54.077-01 54 47.21         22.01GVEJ208F52
     K24J05U  C2024 05 04.46880615 13 52.088-01 55 02.03         22.82GVEJ208F52
     K24J05U  C2024 05 04.48198715 13 50.168-01 55 16.46         22.65GVEJ208F52
     K24J05U* C2024 05 06.47748715 09 06.167-02 33 10.12         22.13wXEJ208F52
     K24J05U  C2024 05 06.48938515 09 04.371-02 33 23.72         22.21wXEJ208F52
     K24J05U  C2024 05 06.50125715 09 02.568-02 33 37.68         22.53wXEJ208F52
     K24J05U  C2024 05 06.51314415 09 00.783-02 33 51.52         23.24wXEJ208F52
     K24J05U  C2024 05 06.57519115 08 51.499-02 35 03.54         21.61GVEJ208F51
     K24J05U  C2024 05 06.57583315 08 51.368-02 35 04.39         23.00GVEJ208F51
     K24J05U KC2024 05 07.21136315 07 21.01 -02 47 39.0          22.5 GVEJ208H21
     K24J05U KC2024 05 07.21714115 07 20.12 -02 47 46.2          22.3 GVEJ208H21
     K24J05U KC2024 05 07.22291815 07 19.26 -02 47 53.0          22.9 GVEJ208H21
     K24J05U 4C2024 05 08.36409 15 04 33.318-03 10 41.90         22.2 rVEJ208G37
     K24J05U 4C2024 05 08.36672 15 04 32.932-03 10 44.94         22.4 rVEJ208G37
     K24J05U  C2024 05 08.37554415 04 32.520-03 10 51.17         22.05GVEJ208F52
     K24J05U  C2024 05 08.38807015 04 30.590-03 11 06.70         22.38GVEJ208F52
     K24J05U  C2024 05 08.40061815 04 28.677-03 11 21.64         22.29GVEJ208F52
     K24J05U  C2024 05 08.41321015 04 26.753-03 11 37.59         21.68GVEJ208F52
     K24J05U  C2024 05 08.43852915 04 22.853-03 12 07.87         22.28GVEJ208F52
     K24J05U  C2024 05 08.44905415 04 21.241-03 12 20.51         22.30GVEJ208F52
     K24J05U  C2024 05 08.45956715 04 19.653-03 12 33.97         21.00GVEJ208F52

Observer details:
F51 Pan-STARRS 1, Haleakala.  Observers J. Herman, T. Lowe, P. Minguez, A.
    Schultz, I. Smith.  Measurers K. Chambers, T. de Boer, J. Fairlamb, H.
    Gao, M. Huber, C.-C. Lin, E. Magnier, Y. Ramanjooloo, R. Wainscoat, R.
    Weryk.  1.8-m Ritchey-Chretien + CCD.
F52 Pan-STARRS 2, Haleakala.  Observers J. Herman, T. Lowe, P. Minguez, A.
    Schultz, I. Smith.  Measurers K. Chambers, T. de Boer, J. Fairlamb, H.
    Gao, M. Huber, C.-C. Lin, E. Magnier, Y. Ramanjooloo, R. Wainscoat, R.
    Weryk.  1.8-m Ritchey-Chretien + CCD.
G37 Lowell Discovery Telescope.  Observers A. Thirouin, S. S. Sheppard.
    Measurer S. S. Sheppard.  4-m Lowell Discovery Telescope + CCD.
H21 Astronomical Research Observatory, Westfield.  Observer R. Holmes.
    Measurers T. Linder, R. Holmes, L. Horn.  1.3-m f/4.0 astrograph + CCD.

Orbital elements:
2024 JU5                                                 Earth MOID = 0.2810 AU
Epoch 2024 Mar. 31.0 TT = JDT 2460400.5                 MPC                     
M 172.48729              (2000.0)            P               Q                  
n   0.63001246     Peri.  330.58960     +0.83372115     -0.49510785             
a   1.3476278      Node    61.10889     +0.54529646     +0.66849131             
e   0.0645436      Incl.   16.21541     +0.08695291     +0.55496630             
P   1.56           H   22.88          G   0.15           U   8                  
Residuals in seconds of arc
240502 F52  0.1-  0.0     240506 F52  0.2-  0.1+    240508 F52  0.1+  0.3+
240502 F52  0.2+  0.1+    240506 F52  0.1-  0.2+    240508 F52  0.1-  0.0
240502 F52  0.0   0.2+    240506 F51  0.4+  0.4+    240508 F52  0.0   0.4+
240502 F52  0.1-  0.1-    240506 F51  0.1-  0.3+    240508 F52  0.1+  0.2-
240504 F52  0.1-  0.0     240507 H21  0.2+  0.0     240508 F52  0.1-  0.3+
240504 F52  0.4-  0.1-    240507 H21  0.1-  0.3-    240508 F52  0.1-  0.5+
240504 F52  0.2+  0.1+    240507 H21  0.1+  0.3-    240508 F52  0.3+  0.2-
240506 F52  0.2-  0.0     240508 G37  0.4-  0.1-
240506 F52  0.1-  0.3+    240508 G37  0.2-  0.1+

Ephemeris:
2024 JU5                 a,e,i = 1.35, 0.06, 16                  q = 1.2606
Date    TT    R. A. (2000) Decl.     Delta      r    Elong.  Phase     V
2024 04 09    15 56 14.1 +03 12 49   0.5267  1.4346   137.5    28.2    23.5
...
2024 04 24    15 36 08.1 +00 51 03   0.4606  1.4339   154.0    17.9    22.9
...
2024 05 02    15 19 33.9 -01 10 40   0.4393  1.4327   162.4    12.3    22.6
...
2024 05 08    15 05 26.7 -03 03 08   0.4313  1.4315   165.9     9.9    22.5
2024 05 09    15 03 01.3 -03 23 26   0.4306  1.4312   166.0     9.8    22.5
2024 05 10    15 00 35.5 -03 44 08   0.4302  1.4310   166.0     9.8    22.5
...
2024 05 16    14 46 08.0 -05 55 18   0.4318  1.4293   162.8    12.1    22.6
...
2024 05 24    14 28 24.9 -09 01 16   0.4450  1.4265   154.2    18.0    22.8
...
2024 06 08    14 05 01.1 -14 46 37   0.4983  1.4198   136.8    29.3    23.4

A. U. Tomatic                (C) Copyright 2024 MPC           M.P.E.C. 2024-J208





More information about the Iaude mailing list